Location: Unspecified
(0.0000°N, 0.0000°E)
Time: 07:45:53
(UTC+00:00)

Vanguard 2 Rocket - Pass Details

Date: 12 October 2023
Orbit: 552 x 3312 km, 32.9° (Epoch: 06 December)

Event Time Altitude Azimuth Distance (km) Brightness Sun altitude
Rises 17:30:59 0° 279° (W) 7,228 13.3 3.8°
Reaches altitude 10° 17:37:14 10° 270° (W) 6,006 13.4 2.3°
Maximum altitude 17:51:26 29° 217° (SW) 3,763 10.7 -1.2°
Drops below altitude 10° 18:01:21 10° 161° (SSE) 4,127 10.1 -3.7°
Sets 18:04:45 0° 149° (SSE) 4,734 10.3 -4.5°
